CZ-4C DEB, 43263

Orbit data source: Space-Track

CZ-4C DEB, 43263 is space debris in SSO originally from a launch on Sat, 31 Mar 2018 UTC launched from the Taiyaun Space Center, China (TSC). Debris objects in space refer to the collection of defunct objects orbiting the Earth. Examples of debris include non-operational satellites, rocket bodies, and fragments generated from explosions, collisions, or faulty payload assembly.

Loading next visibility...
CZ-4C DEB details
Identifier
43263, 2018-031E
Orbit
SSO
Last TLE update16 hours ago
Origin
Flag of CNCNSA (CN / PRC)
ManufacturerUnknown
MissionSpacecraft
Bus & MotorUnknown
MassUnknown
Launch date (UTC)
2018-03-31 (7 years ago)
Launch vehicleUnknown
Launch site
Taiyaun Space Center, China (TSC)
Object type
Payload
Rocket body
Debris
Shape & HBRUnknown
Radar Cross SectionSmall (<0.1 m²)

Expand to show TLE details & history

TLE from 16 hours ago
0 CZ-4C DEB
1 43263U 18031E   24348.53855895  .00004380  00000-0  62746-3 0  9993
2 43263  97.7066   5.0932 0040801 335.1183  24.8059 14.76486927359987
Epoch: 2024-12-13T12:55Z
Definitive object data (Epoch: 2024-12-13T12:55:31.493Z)
Latitude-0.00006°
Longitude88.50889°
Altitude617.478 km
Speed7.564 km/s
True Right ascension00h 20m 22s
True Declination0° 00' 00"
Sunlit
Object was in daylight at TLE epoch
Visualization TLE readout
Latitude-71.73797°
Longitude113.21367°
Altitude647.109 km
Speed7.544 km/s
Apparent Right ascension16h 27m 47s
Apparent Declination-74° 35' 33"
Sunlit
Object is in daylight
Visualization observer readout
Local Sidereal Time03:24:37
Azimuth187.162° SSW
Elevation-54.556°
Doppler factor1
Orbital elements
Apogee altitude666.097 km
Perigee altitude608.848 km
Semi-major axis7,015.609 km
Eccentricity0.0040801
Inclination97.7066°
RAAN5.0932°
Arg. of periapsis335.1183°
True anomaly25.00297°
Mean anomaly24.8059°
Eccentric anomaly24.90434°
Mean motion3.69356 °/min
BSTAR0.00062746
Orbital period97.47 mins
Loading maneuver chart data...
Loading historical data...
Loading historical data...
Loading historical data...
Loading historical data...
Loading historical data...
Loading historical data...
Loading historical data...

CZ-4C DEB Visibility forecast

Observer location: undefined°, undefined

Span
Click to sort rows by Start time (UTC) header in descending order
Start Az.
Max El. time (UTC)
Max El. Az.
Max El.
End time (UTC)
End Az.
8 mins2024-12-14 13:53:39.834Z23.471° NE2024-12-14 13:57:39.834Z116.326° SE39.53°2024-12-14 14:01:39.834Z178.482° S
6 mins2024-12-15 00:51:39.834Z125.767° SE2024-12-15 00:53:39.834Z74.094° E33.19°2024-12-15 00:57:39.834Z3.343° NNE
|